Wetbulb
36.77 33.23 31.96 34.25 34.87 33.38 32.32 30.37 30.44 32.12 36.22 33.90 34.88 34.69 34.11 34.06 32.24 30.82 30.70 30.72 30.99 31.47 33.32 33.95 33.77 33.38 33.79 34.68 35.68 36.43 37.27 38.47 41.54 41.56 42.58 42.43 40.97 42.14 41.66 41.50 41.22 41.60 43.15 46.11
34.03 30.81 36.38 36.33 35.19 33.95 31.71 29.56 29.99 33.82 35.58 35.11 33.49 33.45 31.74 32.46 31.15 31.31 30.59 30.18 30.63 31.08 31.47 32.38 32.21 32.08 31.95 32.31 33.72 34.73 35.68 36.37 37.96 38.76 38.97 38.77 38.20 38.70 39.38 39.61 37.96 38.49 39.31 40.09
33.32 36.42 38.28 36.97 33.78 32.79 31.25 30.20 30.38 32.90 33.12 32.08 30.29 30.53 30.45 30.85 31.67 32.03 31.48 31.37 31.41 30.53 30.06 29.90 30.02 29.52 29.76 30.49 30.82 32.94 33.97 34.76 35.66 36.92 37.27 36.99 36.45 35.06 34.33 33.63 33.36 33.36 34.23 34.95
33.97 37.70 37.43 34.02 33.46 34.79 30.07 35.49 34.40 33.06 29.94 26.79 29.96 24.92 28.68 29.67 29.04 29.89 30.00 29.17 29.39 29.39 29.85 29.74 28.95 28.45 28.25 28.54 29.50 31.26 32.40 32.80 33.46 33.90 33.58 31.93 30.69 29.41 29.94 30.64 31.23 31.55 32.02 32.05
35.97 35.20 34.32 33.86 35.15 36.89 34.19 35.06 33.27 30.49 27.73 25.99 26.23 24.54 27.15 28.90 26.80 27.78 28.51 29.26 29.16 29.68 29.37 28.52 28.16 28.76 28.43 28.32 27.59 28.52 30.70 30.88 31.08 30.93 30.64 30.20 28.81 28.77 28.09 28.60 29.07 29.43 29.93 30.43
36.26 36.13 36.54 36.53 35.27 36.47 35.78 33.52 31.53 28.40 26.79 22.34 27.60 27.48 26.05 27.25 29.23 28.22 28.99 29.31 30.01 29.56 28.95 28.52 28.72 28.50 27.47 27.48 27.57 27.51 29.20 29.20 29.94 29.94 29.33 28.49 27.58 27.24 27.66 27.30 27.43 27.66 28.14 28.86
31.91 33.47 34.40 36.39 33.11 33.29 33.53 31.11 25.57 22.39 21.16 23.03 26.02 24.17 28.36 30.37 30.35 31.05 29.87 29.26 29.22 29.22 28.10 27.87 27.22 26.51 26.55 26.63 27.04 27.87 27.66 27.08 28.10 28.64 28.35 27.82 27.04 26.81 26.59 26.57 26.68 26.90 27.17 27.10
29.07 28.62 34.05 35.92 34.27 32.21 31.19 31.25 25.66 16.98 17.62 21.27 27.37 25.08 30.48 30.14 30.08 31.36 31.95 30.43 29.19 28.50 28.57 28.22 27.85 26.77 26.12 26.48 26.35 26.51 26.40 26.00 26.35 26.80 27.14 27.54 27.89 27.54 27.41 26.90 26.52 26.38 27.31 28.82
29.18 30.50 32.79 34.28 34.13 34.42 29.79 28.43 31.18 24.82 14.88 19.42 25.11 27.66 29.34 28.92 27.63 28.00 28.37 28.17 27.87 28.14 28.25 28.36 28.14 27.07 25.77 25.40 25.67 26.16 26.11 26.17 26.05 25.90 25.66 25.55 26.02 25.95 25.60 25.62 25.93 25.54 25.76 27.98
34.66 29.06 32.27 31.83 33.92 32.42 31.94 33.68 27.66 25.24 14.62 12.91 21.73 23.79 25.34 27.07 26.75 27.06 26.88 27.44 27.93 28.34 28.22 28.09 27.76 27.18 26.38 25.63 25.23 25.43 25.81 25.70 25.80 25.65 25.78 25.78 25.29 25.46 25.17 24.69 24.38 24.30 24.45 24.81
35.08 33.09 29.63 32.27 30.40 29.64 29.20 28.76 27.95 28.44 23.35 15.47 12.22 20.70 29.35 30.28 28.90 27.56 28.39 29.22 29.26 29.10 28.48 27.89 27.47 27.35 26.83 25.85 25.41 25.23 25.26 25.26 25.34 25.73 25.49 25.20 24.89 24.74 24.73 24.33 23.93 24.05 24.11 24.03
36.31 32.39 25.33 29.04 30.53 30.98 30.09 30.02 29.77 25.81 21.81 21.61 21.79 24.80 30.45 30.62 30.77 30.61 30.06 30.43 29.65 29.53 29.03 27.55 27.29 26.51 25.59 25.43 25.17 25.04 25.49 25.25 25.80 25.54 25.26 25.04 24.90 24.59 24.11 23.77 23.82 23.88 23.31 23.67
36.71 30.23 19.62 24.39 27.80 29.07 28.50 29.80 29.96 28.85 25.95 20.59 18.83 22.43 30.48 29.62 29.54 29.49 28.73 29.30 29.59 29.85 28.26 27.30 26.25 25.22 25.32 25.15 25.22 25.20 25.36 25.32 25.84 25.34 24.80 24.80 24.52 24.05 23.54 23.54 23.85 23.72 22.96 22.64
39.90 31.02 26.80 26.08 26.35 29.22 27.32 29.02 29.35 27.22 20.39 21.10 26.64 27.65 27.82 29.09 29.74 28.79 28.83 29.39 29.34 29.77 28.90 26.58 25.29 25.86 26.11 25.35 24.73 24.09 24.12 24.99 25.33 25.04 24.46 24.41 24.01 23.66 23.08 23.27 22.78 22.60 22.00 20.80
36.12 29.01 26.83 25.85 27.00 26.52 27.13 27.88 28.99 26.85 30.04 25.79 28.95 27.92 29.02 31.45 31.29 30.18 29.44 28.88 28.16 28.50 27.65 26.04 26.20 25.87 24.70 24.58 24.23 24.06 23.54 23.96 23.62 23.36 23.51 23.61 24.10 23.40 22.90 22.22 21.70 20.48 19.85 18.77
31.29 24.66 25.35 19.39 26.45 26.65 25.21 27.21 27.33 29.25 26.76 26.77 26.10 26.55 30.39 29.87 30.11 28.88 29.39 28.89 28.22 28.62 27.91 26.19 26.32 26.01 25.92 25.73 24.50 24.97 23.21 23.45 23.41 22.57 23.39 23.84 22.79 22.14 21.80 20.41 19.00 17.96 17.39 16.55
30.11 26.01 21.60 21.77 21.56 23.36 24.61 25.75 26.73 27.11 27.13 28.06 24.71 30.25 23.29 25.68 27.59 28.39 28.24 27.41 27.23 28.26 28.38 25.47 25.35 25.92 26.10 24.85 25.63 23.60 23.64 23.42 23.04 23.20 22.12 20.96 20.12 18.76 18.14 16.73 15.76 14.84 13.75 14.08
26.48 26.75 26.64 17.01 18.45 17.12 23.91 20.61 23.78 27.77 28.28 27.46 22.00 21.68 24.30 25.96 25.36 25.61 26.12 26.10 26.38 26.40 26.94 26.05 24.51 23.85 24.86 24.76 24.39 23.96 23.64 22.77 22.22 19.49 16.89 17.93 15.96 13.83 14.64 13.36 12.38 11.94 11.79 10.99
28.79 27.35 19.43 17.93 16.58 22.30 22.09 19.73 19.69 21.04 20.80 23.59 24.24 24.79 24.71 23.49 22.17 20.97 24.53 24.08 24.95 24.59 25.04 24.85 25.21 24.27 24.02 23.71 23.49 22.64 21.45 21.32 19.25 17.49 16.73 14.60 12.59 9.94 10.62 6.97 9.50 9.43 8.75 8.32
27.37 28.04 28.64 14.95 16.34 15.74 18.60 18.01 21.96 24.12 17.20 20.42 22.96 22.46 20.64 20.21 12.27 18.09 22.78 24.46 24.54 24.85 25.15 25.16 25.14 24.64 23.91 23.25 21.86 20.42 18.82 17.42 15.72 16.42 16.06 13.35 11.45 5.57 4.70 7.47 5.77 6.81 4.54 7.57
19.84 20.29 23.53 17.45 20.38 18.23 20.80 21.59 22.95 13.43 17.60 15.38 17.91 20.41 19.59 18.30 20.20 23.45 24.75 23.56 24.64 24.93 25.05 24.89 24.14 23.99 23.43 20.39 19.39 18.73 16.57 15.35 15.08 13.18 11.83 10.96 8.85 4.42 4.11 2.36 3.74 1.34 1.13 4.72
17.30 17.73 14.76 16.73 16.14 15.21 20.76 20.92 19.05 22.50 22.28 20.79 19.88 21.33 20.81 23.00 24.16 23.62 24.27 24.29 23.78 23.76 24.32 24.51 21.49 21.43 19.50 19.12 18.42 16.86 15.18 13.87 11.18 10.22 9.56 6.87 3.02 3.33 5.48 -5.75 -2.54 -2.56 -4.01 -3.29
14.91 18.78 15.14 19.44 18.98 21.02 22.65 23.83 25.72 26.01 23.08 22.81 22.76 23.68 23.75 23.10 22.67 23.53 22.93 23.27 23.51 22.05 23.20 20.06 20.27 18.98 15.17 15.96 15.62 14.05 12.43 10.89 8.62 3.58 1.87 2.00 3.05 3.54 3.47 -4.48 0.65 -0.80 -4.92 -4.12
17.83 19.47 16.61 17.47 19.41 20.65 23.14 24.61 24.68 25.01 25.29 25.85 25.15 24.02 23.22 22.71 23.30 23.33 22.22 22.70 22.73 20.95 21.35 19.03 16.31 16.73 15.82 11.80 13.00 9.58 9.80 8.79 -0.98 -3.36 0.58 3.71 3.91 3.14 2.77 3.28 2.71 -3.16 -4.60 -1.87
19.48 19.29 15.12 15.75 19.92 21.23 22.98 23.81 25.48 25.14 25.04 23.80 24.26 24.84 24.13 22.68 22.35 22.69 22.00 21.33 21.80 21.57 18.03 16.76 17.12 17.42 15.38 11.10 7.24 4.15 5.50 2.67 -0.73 0.13 3.46 3.67 2.94 0.82 1.48 2.46 1.74 1.82 2.88 3.92
19.93 17.67 16.19 13.91 22.76 22.73 23.29 24.97 25.73 24.20 24.11 24.15 23.43 21.99 22.63 23.29 22.94 21.91 21.39 21.58 19.57 18.05 13.89 12.99 11.90 10.43 7.19 6.51 4.16 0.16 0.08 -0.36 -1.69 0.69 3.62 2.82 2.18 1.51 0.85 0.42 0.23 7.28 11.65 14.28
MSLP
1017.83 1018.49 1018.44 1018.21 1018.41 1018.55 1018.88 1019.19 1019.08 1018.46 1018.21 1018.52 1018.76 1019.58 1020.71 1022.08 1023.23 1024.32 1024.96 1025.38 1025.54 1025.51 1025.54 1025.21 1024.86 1024.20 1023.48 1023.10 1022.45 1022.15 1021.64 1021.51 1020.83 1020.41 1020.97 1021.70 1022.55 1023.17 1023.21 1023.53 1023.62 1023.39 1023.33 1023.00
1018.46 1018.13 1017.55 1017.94 1018.57 1018.88 1019.12 1019.37 1019.32 1018.93 1018.58 1018.91 1019.24 1020.15 1021.54 1022.71 1023.98 1024.78 1025.53 1025.99 1026.05 1026.07 1025.99 1025.70 1025.36 1024.96 1024.46 1024.12 1023.53 1023.26 1022.97 1022.46 1022.09 1021.79 1022.43 1022.88 1023.60 1024.23 1024.58 1024.71 1024.75 1024.64 1024.52 1024.29
1017.74 1017.26 1017.28 1017.89 1018.49 1019.02 1019.19 1019.39 1019.45 1019.37 1019.24 1019.37 1019.94 1020.46 1021.70 1023.27 1024.07 1025.01 1025.66 1026.02 1026.30 1026.52 1026.60 1026.57 1026.22 1025.87 1025.51 1025.10 1024.68 1024.48 1024.05 1023.58 1023.33 1023.06 1023.11 1023.62 1024.11 1024.81 1025.16 1025.82 1025.95 1026.01 1025.87 1025.78
1017.73 1017.04 1017.30 1017.68 1017.97 1018.36 1018.96 1018.61 1019.07 1019.57 1020.13 1020.54 1020.72 1021.30 1021.62 1022.86 1024.05 1024.91 1025.66 1025.93 1026.31 1026.71 1026.88 1026.98 1026.85 1026.73 1026.38 1026.03 1025.59 1025.33 1025.02 1024.50 1024.39 1024.39 1024.25 1024.49 1025.42 1026.08 1026.77 1026.76 1026.90 1026.67 1026.61 1026.70
1016.80 1016.97 1017.22 1017.33 1017.19 1017.82 1018.37 1018.67 1019.50 1020.04 1020.75 1021.06 1021.27 1022.17 1021.29 1022.74 1023.97 1024.92 1025.78 1026.27 1026.27 1026.28 1026.55 1026.99 1027.21 1027.38 1027.12 1026.88 1026.55 1026.71 1025.96 1025.68 1025.63 1025.27 1025.38 1025.94 1026.62 1027.28 1027.57 1027.49 1027.41 1027.73 1027.63 1027.47
1016.72 1016.60 1016.77 1016.75 1017.09 1017.42 1018.36 1019.23 1020.35 1021.22 1021.88 1022.03 1021.33 1021.85 1021.38 1022.01 1022.27 1023.72 1025.02 1026.16 1026.52 1026.62 1027.00 1027.15 1027.26 1027.43 1027.53 1027.61 1027.26 1027.18 1026.77 1026.90 1026.78 1026.64 1026.75 1026.90 1027.14 1027.68 1027.82 1028.09 1028.10 1028.39 1028.49 1028.28
1016.81 1016.53 1016.31 1016.35 1017.20 1017.88 1018.39 1019.70 1021.20 1022.27 1022.84 1022.13 1021.93 1022.41 1020.68 1021.10 1021.91 1022.63 1023.77 1025.15 1026.02 1026.58 1027.11 1027.57 1027.74 1027.71 1027.67 1027.66 1027.89 1027.65 1027.27 1027.70 1027.78 1027.53 1027.52 1027.58 1027.82 1028.01 1028.41 1028.47 1028.69 1028.90 1028.97 1029.02
1016.51 1016.60 1016.03 1016.15 1016.49 1017.07 1018.37 1019.17 1020.68 1022.05 1023.23 1022.75 1022.32 1021.75 1020.38 1021.22 1021.87 1022.40 1023.45 1024.68 1025.59 1026.26 1026.79 1027.52 1027.78 1027.82 1027.84 1027.84 1027.92 1028.07 1027.99 1028.09 1028.21 1028.33 1028.52 1028.61 1028.53 1028.48 1028.85 1028.88 1029.13 1029.25 1029.25 1029.33
1015.69 1015.85 1015.86 1016.04 1016.43 1017.18 1018.76 1019.46 1019.87 1021.92 1024.34 1024.03 1021.86 1020.76 1020.68 1021.59 1022.30 1022.77 1023.62 1024.59 1025.31 1026.03 1026.48 1027.03 1027.36 1027.73 1027.86 1027.88 1028.03 1028.16 1028.11 1028.26 1028.32 1028.52 1028.90 1029.06 1029.07 1029.07 1029.09 1029.17 1029.33 1029.62 1029.82 1029.54
1014.69 1015.86 1016.33 1016.65 1016.74 1017.42 1017.68 1018.84 1020.33 1021.75 1023.34 1023.65 1022.16 1021.13 1020.50 1021.54 1022.12 1022.82 1023.58 1024.09 1024.69 1025.45 1026.14 1026.57 1027.04 1027.29 1027.53 1027.64 1028.02 1028.15 1028.15 1028.41 1028.51 1028.72 1028.87 1029.11 1029.30 1029.32 1029.49 1029.52 1029.55 1029.85 1029.90 1029.73
1014.55 1015.21 1017.12 1017.13 1017.22 1017.40 1018.56 1018.82 1019.83 1020.78 1021.84 1022.27 1022.36 1020.28 1019.18 1020.05 1021.27 1022.22 1022.86 1023.19 1023.79 1024.55 1025.29 1026.00 1026.32 1026.72 1026.98 1027.45 1027.49 1028.01 1028.38 1028.53 1028.70 1028.67 1028.83 1028.96 1029.17 1029.38 1029.29 1029.57 1029.69 1029.83 1029.84 1029.82
1014.12 1015.12 1017.02 1017.05 1016.95 1017.04 1017.84 1018.21 1018.65 1020.04 1021.36 1021.84 1021.86 1019.25 1019.51 1019.55 1020.28 1021.19 1021.97 1022.55 1023.29 1024.06 1024.90 1025.58 1026.14 1026.51 1026.92 1027.39 1027.80 1027.85 1027.97 1028.28 1028.53 1028.60 1028.66 1029.02 1029.18 1029.29 1029.36 1029.40 1029.55 1029.82 1029.79 1029.69
1013.45 1015.06 1016.91 1017.78 1018.11 1017.65 1017.87 1018.57 1018.51 1019.19 1019.78 1020.31 1021.40 1019.36 1019.43 1019.89 1020.54 1021.16 1021.93 1022.43 1023.05 1023.60 1024.25 1024.86 1025.78 1026.20 1026.39 1026.67 1027.12 1027.57 1027.73 1027.89 1028.16 1028.34 1028.67 1028.86 1029.06 1029.26 1029.46 1029.51 1029.61 1029.60 1029.75 1029.66
1012.87 1014.44 1015.41 1016.42 1016.78 1016.90 1018.17 1018.23 1018.47 1018.85 1019.70 1019.67 1018.57 1018.98 1019.59 1020.14 1020.58 1021.00 1021.64 1022.19 1022.91 1023.50 1023.88 1024.24 1024.92 1025.55 1026.10 1026.36 1026.67 1026.94 1027.31 1027.64 1027.85 1028.24 1028.51 1028.83 1029.02 1029.11 1029.24 1029.37 1029.42 1029.53 1029.55 1029.53
1014.00 1015.08 1016.00 1016.72 1016.85 1017.15 1017.27 1017.36 1017.90 1018.43 1018.26 1018.84 1018.21 1018.68 1019.07 1019.35 1019.77 1020.25 1020.69 1021.75 1022.48 1023.07 1023.83 1024.13 1024.58 1024.79 1025.41 1026.11 1026.33 1026.54 1026.94 1027.30 1027.52 1027.80 1028.33 1028.66 1028.91 1028.95 1029.15 1029.27 1029.44 1029.66 1029.59 1029.61
1014.69 1015.65 1016.71 1017.97 1017.87 1017.89 1018.08 1017.22 1017.82 1018.09 1018.20 1018.59 1018.79 1018.26 1018.45 1018.74 1019.37 1020.19 1020.73 1021.34 1021.80 1022.30 1022.89 1023.30 1023.78 1024.26 1024.81 1025.37 1025.74 1026.10 1026.42 1026.76 1027.14 1027.58 1028.07 1028.52 1028.89 1029.19 1029.47 1029.68 1029.81 1029.90 1029.88 1029.82
1015.51 1016.36 1017.74 1018.55 1018.73 1018.66 1018.34 1016.27 1017.02 1017.46 1017.64 1017.90 1018.39 1017.86 1019.03 1019.26 1019.58 1019.85 1020.27 1020.90 1021.29 1021.64 1022.11 1022.75 1023.22 1023.63 1024.06 1024.68 1025.09 1025.54 1025.87 1026.39 1026.90 1027.37 1027.90 1028.51 1029.06 1029.56 1029.81 1029.85 1029.91 1029.99 1029.96 1029.81
1015.62 1016.50 1017.49 1018.86 1019.55 1018.59 1016.36 1016.32 1016.36 1016.75 1017.40 1017.78 1018.29 1018.59 1019.02 1019.30 1019.38 1019.89 1020.18 1020.63 1021.37 1021.58 1021.86 1022.36 1022.79 1023.33 1023.79 1024.09 1024.72 1025.07 1025.60 1026.22 1026.81 1027.40 1028.17 1028.61 1029.21 1029.64 1029.81 1029.94 1029.88 1029.95 1029.87 1029.78
1015.71 1016.20 1017.73 1018.57 1018.92 1017.29 1016.36 1016.83 1017.18 1017.23 1017.54 1017.77 1018.67 1018.78 1019.14 1019.92 1020.12 1020.34 1020.28 1020.55 1020.89 1021.24 1021.45 1021.91 1022.37 1022.75 1023.28 1023.88 1024.46 1025.02 1025.57 1026.18 1026.85 1027.43 1028.17 1028.78 1029.20 1029.63 1029.80 1029.82 1029.85 1029.95 1029.89 1029.84
1016.65 1016.41 1016.81 1018.38 1018.21 1017.42 1016.27 1016.56 1016.52 1016.89 1017.58 1017.51 1018.05 1019.03 1019.78 1020.21 1020.79 1020.21 1020.03 1020.41 1020.76 1020.98 1021.37 1021.82 1022.31 1022.71 1023.05 1023.48 1024.12 1024.94 1025.66 1026.31 1026.84 1027.44 1028.08 1028.68 1029.09 1029.35 1029.61 1029.80 1030.00 1030.05 1030.08 1029.79
1017.79 1017.65 1017.04 1017.30 1017.39 1016.83 1016.40 1016.39 1016.72 1017.65 1017.54 1017.44 1018.35 1019.26 1019.87 1020.05 1019.51 1019.41 1019.57 1020.02 1020.22 1020.72 1021.12 1021.64 1022.20 1022.61 1022.75 1023.32 1024.12 1024.89 1025.57 1026.17 1026.72 1027.55 1028.14 1028.57 1028.90 1029.22 1029.57 1029.88 1030.12 1030.13 1029.98 1029.66
1017.31 1017.82 1017.87 1017.81 1017.54 1016.84 1016.04 1017.15 1016.97 1016.34 1016.70 1017.23 1018.18 1018.69 1019.31 1019.01 1019.17 1019.42 1019.70 1020.19 1020.42 1020.88 1021.15 1021.47 1022.24 1022.65 1022.61 1023.33 1024.04 1024.76 1025.49 1026.09 1026.97 1027.68 1028.22 1028.65 1028.95 1029.19 1029.48 1029.58 1029.86 1029.90 1029.76 1029.66
1016.95 1015.93 1016.30 1016.39 1015.71 1015.43 1015.54 1015.23 1015.19 1015.35 1016.15 1017.11 1017.49 1017.95 1018.11 1018.61 1018.96 1019.16 1019.62 1020.14 1020.41 1020.79 1021.01 1021.45 1022.13 1022.55 1022.89 1023.46 1024.06 1024.84 1025.41 1026.30 1027.18 1027.86 1028.36 1028.57 1028.75 1028.99 1029.21 1029.43 1029.45 1029.52 1029.40 1029.32
1015.83 1015.60 1015.85 1016.26 1015.72 1015.61 1015.29 1015.07 1015.11 1015.53 1015.86 1016.32 1016.74 1017.41 1018.13 1018.33 1018.33 1018.78 1019.31 1019.82 1020.34 1020.55 1021.05 1021.31 1022.18 1022.62 1022.97 1023.50 1024.23 1024.79 1025.60 1026.43 1027.27 1027.98 1028.14 1028.31 1028.58 1028.72 1028.84 1029.00 1028.96 1028.90 1028.85 1028.60
1014.84 1015.19 1015.73 1015.73 1015.34 1015.24 1014.89 1014.75 1014.64 1015.18 1015.83 1016.37 1016.73 1016.99 1017.39 1018.06 1018.16 1018.64 1019.08 1019.73 1019.97 1020.33 1020.80 1021.19 1021.70 1022.22 1022.64 1023.58 1024.61 1025.24 1025.90 1026.54 1027.45 1027.85 1027.99 1028.17 1028.38 1028.58 1028.63 1028.59 1028.42 1028.07 1027.73 1027.49
1014.12 1014.30 1014.65 1014.07 1013.61 1013.68 1013.77 1013.64 1014.05 1015.06 1015.39 1015.63 1016.26 1016.71 1017.20 1017.70 1017.94 1018.38 1018.97 1019.21 1019.77 1020.33 1020.93 1021.39 1021.93 1022.55 1023.39 1024.11 1025.03 1025.66 1025.98 1026.51 1027.27 1027.67 1027.90 1028.02 1028.19 1028.32 1028.46 1028.34 1027.85 1027.41 1026.59 1025.89
Wind_Speed
1 4 9 13 10 2 4 4 5 3 3 0 7 7 4 5 7 7 6 6 6 7 7 9 11 11 10 12 14 14 13 13 8 6 5 8 8 8 11 11 15 14 14 14
3 7 10 4 5 5 2 2 5 5 2 6 4 6 3 5 4 4 5 6 6 5 8 10 10 10 11 10 11 12 12 12 10 5 4 5 5 7 8 9 12 13 14 13
8 5 6 7 5 6 5 6 5 7 3 1 4 6 4 3 5 5 5 4 4 5 5 6 7 9 8 11 11 10 10 11 11 9 4 4 5 5 6 9 9 12 13 14
7 4 6 5 6 8 5 8 5 4 4 5 1 6 3 5 4 4 5 5 5 4 4 4 6 7 7 8 7 8 10 11 11 9 12 15 9 9 4 4 5 8 11 12
7 6 6 6 6 8 6 5 6 3 3 1 2 0 7 5 5 6 6 5 5 6 6 5 5 5 6 7 7 7 9 12 12 12 10 10 11 7 4 5 8 9 9 11
5 1 6 7 2 4 8 6 6 5 3 1 7 7 5 6 5 6 6 6 7 6 5 4 4 5 5 5 7 6 10 11 10 11 11 12 12 8 8 8 7 6 4 6
1 4 2 3 7 3 4 6 1 3 1 6 2 1 8 3 2 8 15 11 8 6 6 5 5 4 4 5 5 5 8 9 7 10 10 9 9 9 9 6 5 6 4 4
8 4 10 6 5 8 7 6 7 7 4 4 2 7 7 3 3 6 11 9 7 8 6 6 6 5 5 6 6 6 7 8 7 7 7 6 7 5 5 6 4 4 4 4
6 3 2 3 3 3 5 4 4 8 3 2 5 5 2 1 2 5 9 8 9 8 8 8 7 6 6 6 6 7 7 7 7 7 6 6 6 6 6 7 5 4 4 4
7 4 0 2 4 4 5 7 4 3 2 5 5 5 6 6 8 7 9 11 9 7 8 8 7 7 6 6 5 6 6 7 6 6 5 5 5 6 5 5 6 5 4 5
6 4 2 4 6 9 3 3 4 5 5 6 2 7 6 8 10 14 13 12 11 11 10 8 7 7 7 6 6 6 6 6 6 6 5 6 5 5 5 5 4 4 3 4
8 6 5 7 3 3 0 6 7 6 6 3 2 9 5 4 12 15 14 11 8 7 8 7 7 7 7 7 6 7 6 6 5 5 5 5 4 4 5 5 5 5 5 5
10 2 3 6 2 3 5 5 3 5 5 9 6 7 3 3 6 7 8 9 8 8 8 8 8 9 8 8 7 7 6 7 6 6 5 4 3 3 3 4 4 5 5 5
6 5 8 10 6 7 6 7 6 6 5 5 16 12 3 4 6 6 8 7 7 8 9 8 7 9 8 7 7 7 7 6 6 5 4 4 2 2 2 3 4 4 5 5
5 8 5 3 3 3 3 7 14 13 16 12 12 13 7 10 10 9 9 7 8 7 6 8 9 10 7 7 7 6 6 6 5 5 5 4 1 3 4 5 5 5 5 5
2 2 4 2 1 3 3 8 6 14 3 3 1 13 8 6 5 5 8 9 8 7 8 8 8 8 9 9 8 6 7 7 6 6 6 4 3 2 2 2 2 3 3 4
6 7 4 5 3 5 9 12 13 7 7 9 13 13 4 6 8 9 8 8 8 7 7 8 9 10 8 8 8 9 8 6 7 6 5 5 4 3 3 1 1 2 3 4
8 7 3 4 3 9 2 4 1 11 6 8 1 4 5 5 4 3 4 5 7 7 7 7 7 6 7 6 7 5 6 6 6 6 5 5 5 4 2 1 1 2 3 5
1 6 4 5 5 8 2 6 8 9 11 10 10 6 6 5 4 4 6 6 7 8 8 7 7 7 6 7 6 6 6 6 6 6 6 5 4 3 0 2 3 3 4 6
3 4 7 5 5 9 3 2 3 5 8 9 8 7 8 6 3 5 5 6 8 7 5 8 8 4 5 6 6 6 6 6 7 6 5 4 4 3 2 3 3 1 3 7
3 1 12 6 9 7 5 6 4 7 8 4 6 6 7 5 6 4 4 5 6 6 8 5 5 7 8 5 7 8 7 9 5 5 5 4 3 2 1 1 1 2 4 7
8 10 5 2 3 11 8 4 9 6 2 6 6 7 7 7 6 5 6 5 6 9 8 7 6 7 4 6 8 7 8 6 6 5 4 3 1 1 1 1 2 3 3 5
4 7 8 10 7 1 10 5 7 5 7 7 8 7 9 9 8 8 7 8 8 8 8 4 6 5 3 5 6 7 5 7 6 5 3 2 1 1 2 1 4 3 2 3
5 3 2 3 4 6 10 5 1 6 8 6 6 5 6 8 9 8 7 7 7 6 8 5 5 7 8 6 5 4 7 6 6 4 2 1 2 3 2 3 3 2 3 4
4 8 6 3 2 1 6 7 8 8 6 4 5 8 9 7 7 7 6 7 8 7 4 5 7 8 7 8 6 4 6 6 4 3 2 3 2 3 3 4 4 5 6 7
7 8 6 6 8 6 6 10 10 8 8 9 9 6 7 9 10 6 8 8 5 5 3 3 3 4 5 6 6 5 6 6 5 3 3 3 2 2 3 4 5 11 15 17
Wind_Direction
53 124 205 199 200 158 144 179 213 247 225 186 241 249 341 66 71 74 72 66 50 33 349 9 10 11 21 24 30 27 32 17 29 44 67 60 61 47 48 41 35 36 31 32
67 223 228 147 158 174 155 166 250 283 283 182 313 280 76 43 57 101 107 78 63 45 20 14 11 17 22 25 33 29 34 35 36 41 47 68 79 57 61 47 41 35 34 34
178 209 137 170 163 165 205 194 200 220 347 345 342 287 182 53 97 86 76 99 76 68 49 11 15 20 13 29 21 28 33 44 44 51 72 76 70 54 45 34 39 31 34 33
232 253 183 167 196 151 217 203 172 176 119 225 65 279 243 172 149 136 145 141 127 97 59 33 27 26 19 19 17 23 35 45 45 40 70 78 83 82 45 62 49 47 42 41
234 178 186 190 191 164 216 118 149 129 125 57 254 315 256 139 201 198 197 190 167 149 135 105 60 35 28 24 31 10 49 50 44 53 64 77 76 74 58 48 53 35 32 36
229 234 171 204 103 152 139 79 52 55 91 286 229 180 257 196 195 163 166 193 189 169 160 128 104 78 57 33 42 33 62 53 53 64 65 75 83 80 71 53 53 35 24 33
167 212 190 155 87 60 103 108 308 344 20 230 4 189 248 176 148 179 178 186 188 177 169 161 137 117 101 87 65 69 79 70 56 70 73 76 80 77 76 70 59 43 26 22
166 204 166 191 189 170 177 162 156 221 209 260 342 234 260 261 302 238 163 164 166 180 182 176 173 162 141 118 105 97 89 86 69 70 69 67 74 81 76 71 64 57 43 36
151 260 96 88 126 131 183 180 158 103 38 23 234 283 277 46 45 115 142 152 185 194 188 184 182 176 160 145 139 135 116 106 100 95 91 76 80 82 80 71 68 60 41 24
203 115 60 144 110 45 149 159 87 7 174 256 280 272 239 222 202 168 168 191 198 200 189 188 187 181 179 162 153 139 133 130 131 122 113 104 97 84 83 77 63 49 33 25
151 123 222 135 206 170 136 173 67 121 147 172 258 254 210 218 176 182 199 200 198 197 196 193 191 188 179 174 166 157 150 147 145 134 127 112 96 77 72 70 55 38 33 18
193 138 167 195 139 92 163 194 160 160 218 254 144 257 3 252 178 182 196 200 204 198 197 194 191 183 182 187 184 181 172 164 169 160 143 131 114 88 61 48 37 25 19 17
175 201 80 354 29 37 191 205 159 91 78 193 165 259 35 59 158 193 185 209 199 200 194 193 191 195 192 192 188 189 186 192 185 171 159 144 115 84 57 39 27 25 11 360
111 142 170 208 188 138 179 194 188 159 184 176 229 254 171 210 211 198 214 214 197 208 209 199 190 198 202 193 193 195 201 201 190 186 177 171 155 85 50 32 25 23 9 353
166 190 151 85 99 115 193 187 192 198 221 207 245 227 181 207 207 207 205 191 201 231 223 209 202 200 192 202 208 206 212 203 192 187 189 205 148 56 41 30 23 357 355 356
341 105 79 336 86 78 277 235 170 219 183 255 253 256 181 208 202 180 202 194 219 224 221 210 204 187 198 206 208 204 214 213 188 192 195 165 120 75 70 62 337 327 340 336
146 127 111 232 111 101 270 217 193 174 187 169 211 236 181 201 210 216 218 206 223 224 224 211 201 199 199 202 202 207 211 188 189 181 163 148 125 152 194 242 277 331 321 323
147 135 152 131 66 221 247 29 84 203 218 209 341 214 177 196 199 218 208 194 230 229 226 217 201 201 213 212 210 210 185 186 165 156 159 152 157 186 209 216 1 321 337 332
348 129 138 160 201 318 229 187 156 162 247 186 206 215 174 146 107 271 224 206 218 213 207 204 196 190 191 204 193 180 166 158 153 171 170 165 159 166 18 14 352 338 329 322
23 4 194 144 192 221 257 226 144 116 268 207 185 191 155 133 116 243 207 203 220 213 195 194 192 190 197 220 161 157 172 166 187 173 161 149 140 112 34 355 335 310 305 302
114 58 212 193 229 280 198 182 166 117 245 168 169 167 149 175 191 205 162 203 206 202 202 198 183 208 220 154 158 188 164 199 153 138 141 136 106 105 275 267 308 282 288 301
160 170 199 119 187 257 157 65 166 200 87 151 174 176 177 206 228 213 219 238 215 213 214 217 207 227 207 170 169 182 193 137 137 144 147 143 123 319 275 164 257 271 272 287
231 187 180 187 203 271 196 185 192 153 146 193 179 193 191 193 222 225 218 218 220 219 229 202 207 226 184 175 176 180 159 143 141 138 152 166 355 282 301 288 299 304 258 271
242 143 182 102 194 212 207 233 259 185 202 193 208 184 183 198 214 226 215 220 224 221 228 202 177 214 218 178 161 147 143 133 135 153 202 225 274 304 291 294 271 233 253 270
195 128 157 262 237 58 273 227 221 215 226 199 194 203 206 203 238 217 227 224 230 233 207 184 202 214 211 155 142 132 134 135 154 171 218 246 251 255 283 269 255 256 247 246
180 158 173 211 199 173 208 204 211 211 218 224 214 236 224 200 229 210 232 231 216 221 188 187 172 134 134 143 153 158 154 156 164 183 216 223 240 246 266 269 283 284 288 285